Location: Glen Waverley
(37.8830°S, 145.1670°E)
Time: 06:20:47
(UTC+11:00)

ISS - Visible Passes

Search period start: 11 December 2018 00:00
Search period end: 21 December 2018 00:00
Orbit: 401 x 408 km, 51.6° (Epoch: 10 December)

Date Brightness Start Highest point End Pass type
(mag) Time Alt. Az. Time Alt. Az. Time Alt. Az.
11 Dec -1.2 02:35:34 18° SSW 02:35:34 18° SSW 02:37:59 10° SSE visible
12 Dec -0.9 01:44:53 18° SSE 01:44:53 18° SSE 01:46:07 10° SSE visible
13 Dec -0.5 00:54:06 10° SE 00:54:06 10° SE 00:54:08 10° SE visible
13 Dec -0.6 02:26:43 10° SW 02:28:01 12° SSW 02:29:24 10° S visible
14 Dec -0.8 01:35:46 16° SSW 01:35:46 16° SSW 01:37:44 10° SSE visible
14 Dec -0.5 04:49:32 10° S 04:50:59 12° SSE 04:52:26 10° SE visible
15 Dec -0.9 00:44:36 17° S 00:44:36 17° S 00:45:53 10° SSE visible
15 Dec -1.2 23:52:54 17° SSE 23:52:54 17° SSE 23:53:54 10° SE visible
16 Dec -0.3 01:27:03 10° SSW 01:27:59 11° SSW 01:28:55 10° S visible
16 Dec -0.7 04:40:54 10° SSW 04:43:23 19° SSE 04:45:51 10° ESE visible
16 Dec -3.4 22:59:00 57° SSE 22:59:00 57° SSE 23:01:48 10° SE visible
17 Dec -0.5 00:33:30 10° SW 00:35:25 14° SSW 00:37:21 10° SSE visible
17 Dec -0.4 03:49:07 10° SSW 03:50:52 13° SSE 03:52:39 10° SE visible
17 Dec -3.7 22:03:01 10° NNW 22:06:15 52° NE 22:09:30 10° ESE visible
17 Dec -1.0 23:40:21 10° WSW 23:42:56 20° SSW 23:45:31 10° SSE visible
18 Dec 0.0 02:57:43 10° S 02:58:18 10° SSE 02:58:52 10° SSE visible
18 Dec -1.9 04:32:28 10° SW 04:35:35 34° SSE 04:38:41 10° E visible
18 Dec -2.7 21:11:21 10° N 21:14:07 25° NE 21:16:54 10° ESE visible
18 Dec -1.9 22:47:28 10° W 22:50:30 32° SSW 22:53:33 10° SSE visible
19 Dec -1.0 03:40:29 10° SSW 03:43:10 22° SSE 03:45:50 10° E visible
19 Dec -3.5 05:16:34 10° WSW 05:19:49 47° NW 05:23:01 10° NNE visible
19 Dec -3.1 21:54:52 10° WNW 21:58:08 58° SW 22:01:27 10° SE visible
19 Dec -0.3 23:33:35 10° SW 23:35:13 13° SSW 23:36:50 10° S visible
20 Dec -0.5 02:48:37 10° SSW 02:50:39 15° SSE 02:52:42 10° ESE visible
20 Dec -3.7 04:24:13 10° SW 04:27:35 82° SE 04:30:55 10° NE visible
20 Dec -0.7 22:40:17 10° WSW 22:42:39 18° SSW 22:45:01 10° SSE visible
